Morgantown, WV

8:37 PM EDT on June 28, 2017 (GMT -0400)
Morgantown Municipal-Hart

Weather History for KMGW - December, 2012

Change the Weather History Date:

Tuesday, December 4, 2012

  Actual Average Record
Temperature  
Mean Temperature 59 °F 38 °F  
Max Temperature 69 °F 46 °F 69 °F (2012)
Min Temperature 48 °F 30 °F 3 °F (1966)
Degree Days  
Heating Degree Days 6 27  
Month to date heating degree days 39 106  
Since 1 July heating degree days 1160 1154  
Cooling Degree Days 0 0  
Month to date cooling degree days 0 0  
Year to date cooling degree days 1141 814  
Growing Degree Days 8 (Base 50)    
Moisture  
Dew Point 51 °F    
Average Humidity 71    
Maximum Humidity 93    
Minimum Humidity 49    
Precipitation  
Precipitation 0.31 in 0.10 in 0.67 in (1968)
Month to date precipitation 0.48 0.41  
Year to date precipitation 30.95 39.33  
Sea Level Pressure  
Sea Level Pressure 30.11 in    
Wind  
Wind Speed 7 mph (SSW)    
Max Wind Speed 18 mph    
Max Gust Speed 30 mph    
Visibility 8 miles    
Events Rain    
T = Trace of Precipitation, MM = Missing Value Source: NWS Daily Summary

Daily Weather History Graph

Daily Weather History Graph

Search for Another Location

Airport or City:

Trip Planner

Search our weather history database for the weather conditions in past years. The results will help you decide how hot, cold, wet, or windy it might be!

Date:

Astronomy

Dec. 04, 2012 Rise Set
Actual Time 7:24 AM EST 4:55 PM EST
Civil Twilight 6:54 AM EST 5:25 PM EST
Nautical Twilight 6:21 AM EST 5:58 PM EST
Astronomical Twilight 5:48 AM EST 6:31 PM EST
Moon 10:40 PM EST (12/4) 11:18 AM EST (12/4)
Length of Visible Light 10h 30m
Length of Day
9h 30m
Waning Gibbous, 69% of the Moon is Illuminated
Dec 4
Waning Gibbous
Dec 6
Last Quarter
Dec 13
New
Dec 20
First Quarter
Dec 28
Full

Hourly Weather History & Observations

Time (EST) Temp. Dew Point Humidity Pressure Visibility Wind Dir Wind Speed Gust Speed Precip Events Conditions
1:53 AM 60.1 °F 51.1 °F 72% 30.18 in 10.0 mi SSW 3.5 mph - N/A   Clear
2:53 AM 59.0 °F 50.0 °F 72% 30.19 in 10.0 mi SSW 4.6 mph - N/A   Mostly Cloudy
3:53 AM 57.9 °F 50.0 °F 75% 30.19 in 10.0 mi SSW 3.5 mph - N/A   Clear
4:53 AM 59.0 °F 48.9 °F 69% 30.19 in 10.0 mi South 3.5 mph - N/A   Mostly Cloudy
5:53 AM 59.0 °F 48.0 °F 67% 30.18 in 10.0 mi South 5.8 mph - N/A   Clear
6:53 AM 59.0 °F 48.0 °F 67% 30.19 in 10.0 mi South 4.6 mph - N/A   Clear
7:53 AM 57.9 °F 48.0 °F 70% 30.20 in 10.0 mi South 3.5 mph - N/A   Clear
8:53 AM 61.0 °F 48.0 °F 62% 30.19 in 10.0 mi South 5.8 mph - N/A   Clear
9:53 AM 64.0 °F 48.9 °F 58% 30.18 in 10.0 mi South 9.2 mph - N/A   Clear
10:53 AM 66.0 °F 48.9 °F 54% 30.16 in 10.0 mi SSW 8.1 mph 18.4 mph N/A   Clear
11:53 AM 68.0 °F 48.9 °F 50% 30.12 in 10.0 mi South 12.7 mph 20.7 mph N/A   Mostly Cloudy
1:53 PM 68.0 °F 51.1 °F 55% 30.07 in 10.0 mi SW 11.5 mph - N/A   Overcast
2:53 PM 61.0 °F 55.9 °F 83% 30.09 in 10.0 mi SW 12.7 mph - 0.01 in   Overcast
3:53 PM 60.1 °F 57.0 °F 90% 30.08 in 10.0 mi SSW 10.4 mph - 0.01 in   Overcast
4:53 PM 60.1 °F 55.9 °F 86% 30.07 in 10.0 mi South 3.5 mph - N/A   Overcast
5:37 PM 60.8 °F 55.4 °F 82% 30.08 in 10.0 mi Variable 6.9 mph - 0.00 in   Overcast
5:53 PM 61.0 °F 55.0 °F 81% 30.06 in 10.0 mi South 5.8 mph - 0.00 in   Overcast
6:05 PM 62.6 °F 55.4 °F 77% 30.07 in 10.0 mi SSW 5.8 mph - N/A   Overcast
6:53 PM 61.0 °F 54.0 °F 78% 30.04 in 10.0 mi South 4.6 mph - N/A   Overcast
7:53 PM 62.1 °F 54.0 °F 75% 30.03 in 10.0 mi SW 4.6 mph - N/A   Overcast
8:53 PM 59.0 °F 55.0 °F 87% 30.03 in 7.0 mi Variable 4.6 mph - 0.03 in Rain Light Rain
9:53 PM 57.9 °F 55.9 °F 93% 30.04 in 10.0 mi SSW 5.8 mph - 0.03 in Rain Light Rain
10:21 PM 57.2 °F 55.4 °F 94% 30.05 in 1.8 mi WSW 3.5 mph - 0.07 in Rain Rain
10:28 PM 57.2 °F 53.6 °F 88% 30.07 in 1.2 mi NW 10.4 mph 19.6 mph 0.15 in Rain Heavy Rain
10:33 PM 55.4 °F 53.6 °F 94% 30.08 in 2.0 mi NNW 12.7 mph 23.0 mph 0.16 in Rain Rain
10:42 PM 51.8 °F 48.2 °F 88% 30.10 in 5.0 mi NW 13.8 mph 29.9 mph 0.17 in Rain Light Rain
10:53 PM 51.1 °F 48.0 °F 89% 30.11 in 4.0 mi NW 11.5 mph 25.3 mph 0.20 in Rain Light Rain
11:06 PM 48.2 °F 46.4 °F 93% 30.12 in 7.0 mi North 10.4 mph 18.4 mph 0.02 in Rain Light Rain
11:53 PM 48.0 °F 45.0 °F 89% 30.14 in 6.0 mi NNE 4.6 mph - 0.02 in Rain Light Rain